Regional Weather Roundup
Issued by NWS Upton, NY

Home | Current Version | Previous Version | Text Only | Print | Product List | Glossary On
Versions: 1 2 3 4 5 6 7 8 9 10 11 12 13 14 15 16 17 18 19 20 21 22 23 24 25 26 27 28 29 30 31 32 33 34 35 36 37 38 39 40 41 42 43 44 45 46 47 48 49 50
000
ASUS41 KOKX 202005
RWROKX

REGIONAL WEATHER ROUNDUP
NATIONAL WEATHER SERVICE NEW YORK NY
400 PM EDT WED AUG 20 2014

NOTE: "FAIR" INDICATES FEW OR NO CLOUDS BELOW 12,000 FEET WITH NO
SIGNIFICANT WEATHER AND/OR OBSTRUCTIONS TO VISIBILITY.

NYZ071-072-176-178-NJZ106-104-202100-
NEW YORK CITY METRO AREA


CITY           SKY/WX    TMP DP  RH WIND       PRES   REMARKS
CENTRAL PARK   SUNNY     82  55  39 MISG      30.00S
LAGUARDIA APRT MOSUNNY   81  55  40 SE13      29.97S
KENNEDY INTL   MOSUNNY   79  58  48 S8        30.00S
NEWARK/LIBERTY MOSUNNY   81  56  42 S12       29.97S
BRNX BOT. GARD   N/A     81  57  44 E9        30.00S
TETERBORO      SUNNY     83  57  41 S13G21    29.95S
$$

NYZ177-179-078>081-202100-
LONG ISLAND NEW YORK

CITY           SKY/WX    TMP DP  RH WIND       PRES   REMARKS
FARMINGDALE    SUNNY     77  59  53 S9        29.99S
ISLIP          MOSUNNY   77  56  48 SE9       29.98S
SHIRLEY        SUNNY     77  56  48 SE7       30.00S
WESTHAMPTON    SUNNY     77  54  44 SE8       30.01S
MONTAUK POINT    N/A     75  63  66 VRB5      30.01S
$$

NYZ052-065-067-202100-
HUDSON VALLEY

CITY           SKY/WX    TMP DP  RH WIND       PRES   REMARKS
WHITE PLAINS   MOSUNNY   80  64  58 SE7       29.98S
NEWBURGH       MOSUNNY   84  66  54 VRB6      29.97F
MONTGOMERY     MOSUNNY   86  64  47 SW12      29.95S
POUGHKEEPSIE   MOSUNNY   82  64  54 S5        29.94F
ALBANY         PTSUNNY   82  65  56 E7        29.94F
$$

NJZ001-105-106-008-010-013-015-019>022-104-202100-
NEW JERSEY

CITY           SKY/WX    TMP DP  RH WIND       PRES   REMARKS
NEWARK/LIBERTY MOSUNNY   81  56  42 S12       29.97S
TETERBORO      SUNNY     83  57  41 S13G21    29.95S
CALDWELL       PTSUNNY   84  61  45 S12       29.97R
MORRISTOWN     PTSUNNY   84  63  48 SE9G15    29.97S
SOMERVILLE     MOSUNNY   85  62  46 SW7       29.95R
LINDEN         FAIR      86  55  34 SE12      29.99S
SUSSEX         MOSUNNY   85  63  47 SW6       29.96S
ANDOVER          N/A     82  63  52 CALM      29.98R
TRENTON        PTSUNNY   84  62  47 SW9       29.96S
MILLVILLE      SUNNY     81  63  54 SW7       29.97S
ATLANTIC CITY  SUNNY     78  62  57 E7        29.99S
WRIGHTSTOWN    PTSUNNY   82  63  52 SE8       29.95R
TOMS RIVER     SUNNY     81  57  44 SE7       29.99S
BELMAR         SUNNY     77  57  50 SE9       29.99S
$$

PAZ047>061-062-071-202100-
EASTERN PENNSYLVANIA

CITY           SKY/WX    TMP DP  RH WIND       PRES   REMARKS
PHILADELPHIA   PTSUNNY   83  65  54 SE6       29.96S
ALLENTOWN      PTSUNNY   83  62  49 SW7       29.97R
SCRANTON       MOSUNNY   81  64  56 S10       29.97R
$$

CTZ002-004>006-009-010-012-RIZ004-006-007-MAZ004-011-015-202100-
SOUTHERN NEW ENGLAND
 IN CT

CITY           SKY/WX    TMP DP  RH WIND       PRES   REMARKS
BRADLEY INTL   MOSUNNY   83  58  42 VRB7      29.96F
HARTFORD       SUNNY     82  56  40 CALM      29.96F
DANBURY        MOSUNNY   80  63  55 SE8       29.99S
WTRBRY/OXFORD  MOSUNNY   79  64  61 S9        30.02S
BRIDGEPORT     MOSUNNY   78  60  53 E9        29.98F
MERIDEN        MOSUNNY   81  59  47 S9        29.97F
NEW HAVEN      MOSUNNY   82  54  37 S6        29.99S
CHESTER        FAIR      77  59  53 S8        30.00S
GROTON         SUNNY     74  60  61 SE9       29.99S
WILLIMANTIC    PTSUNNY   82  60  47 VRB3      29.98F

 IN RI

CITY           SKY/WX    TMP DP  RH WIND       PRES   REMARKS
PROVIDENCE     MOSUNNY   78  62  57 SE12      30.00R
BLOCK ISLAND   SUNNY     72  54  53 SE8       30.01S
WESTERLY       SUNNY     73  62  68 S9        30.00F

 IN MA

CITY           SKY/WX    TMP DP  RH WIND       PRES   REMARKS
BOSTON         MOSUNNY   72  53  51 E14       30.02S
WORCESTER      SUNNY     78  54  43 VRB6      30.02S
WESTFIELD      SUNNY     82  59  45 SE6       29.97F
PROVINCETOWN   SUNNY     73  61  64 MISG      30.03R
NANTUCKET      SUNNY     72  57  59 NE13      30.01S
$$

ANZ330-335-338-340-345-350-353-355-202100-
COASTAL MARINE OBSERVATIONS


STATION/POSITION TIME  SKY/WX   TEMP    WIND        PRES    VSBY  WAVE
                                AIR SEA DIR/SP/G                  HT/PER
                 (UTC)          (F)     (DEG/KT/KT) (MB)    (MI)  (FT/S)
NY HARB ENTRANCE NOT AVBL
4S FIRE IS       NOT AVBL
23SW MTP         2000            71 71              1015.3          2/ 7
HUDSON CANYON    2000            72 73   50/ 14/ 16 1014.7          3/ 6
EXECUTION ROCKS  2000            75 75   80/  6/  8   N/A
WESTERN LI SOUND 2000            74      90/ 12/ 14   N/A           1
CENTRAL LI SOUND 1900            74 75  140/  2/  4   N/A           0
EASTERN LI SOUND 1900            72 70  150/  6/ 10   N/A
ROBBINS REEF     2000            72     170/ 17/ 18   N/A
$$


>>>>>>>>>>>>>>>>>>>>>>>>>>>> KEY <<<<<<<<<<<<<<<<<<<<<<<<<<<
>                                                          <
>     SKY/WX - SKY CONDITION/PRESENT WEATHER               <
>     TMP    - TEMPERATURE IN FAHRENHEIT                   <
>     DP     - DEWPOINT IN FAHRENHEIT                      <
>     RH     - RELATIVE HUMIDITY IN PERCENT                <
>     WIND   - DIRECTION AND SPEED IN MPH                  <
>     PRES   - MEAN SEA LEVEL PRESSURE IN INCHES OF HG     <
>     WCI    - WIND CHILL INDEX                            <
>     VSB    - VISIBILITY IN MILES                         <
>     HX     - HEAT INDEX                                  <
>     TC     - TEMPERATURE IN CELSIUS                      <
>     VRB    - VARIABLE WIND DIRECTION                     <
>                                                          <
>>>>>>>>>>>>>>>>>>>>>>>>>>>> KEY <<<<<<<<<<<<<<<<<<<<<<<<<<<





USA.gov is the U.S. government's official web portal to all federal, state and local government web resources and services.